This is the latest recevied weather packets stored in our database for station/object EA3ANS-1. If no packets are shown the sender has not sent any weather packets the latest 10 day(s).
| Time | Temp. | Humidity | Pressure | Rain* | Wind** | Luminosity | Snow |
|---|---|---|---|---|---|---|---|
| 1787712978 | 22.78° C | - | 1013.1 hPa | 0 mm | 1.79 m/s, 49° | - | - |
| 1787712369 | 22.22° C | - | 1013.5 hPa | 0 mm | 0 m/s | - | - |
| 1787711771 | 22.78° C | - | 1012.4 hPa | 0 mm | 0 m/s | - | - |
| 1787711174 | 22.78° C | - | 1013.2 hPa | 0 mm | 0.89 m/s, 257° | - | - |
| 1787710568 | 22.22° C | - | 1012.7 hPa | 0 mm | 1.34 m/s, 248° | - | - |
| 1787709971 | 22.78° C | - | 1012.4 hPa | 0 mm | 0 m/s | - | - |
| 1787709373 | 22.22° C | - | 1013.3 hPa | 0 mm | 1.79 m/s, 300° | - | - |
| 1787708764 | 22.22° C | - | 1012.9 hPa | 0 mm | 1.34 m/s, 264° | - | - |
| 1787708167 | 22.22° C | - | 1013 hPa | 0 mm | 0.89 m/s, 14° | - | - |
| 1787707569 | 22.22° C | - | 1013.6 hPa | 0 mm | 1.34 m/s, 267° | - | - |
| 1787706970 | 22.22° C | - | 1013 hPa | 0 mm | 1.34 m/s, 308° | - | - |
| 1787706362 | 22.78° C | - | 1013.3 hPa | 0 mm | 0 m/s | - | - |
| 1787705765 | 22.78° C | - | 1013.5 hPa | 0 mm | 0.89 m/s, 281° | - | - |
| 1787705161 | 22.78° C | - | 1013.1 hPa | 0 mm | 1.79 m/s, 335° | - | - |
| 1787704559 | 22.78° C | - | 1013.1 hPa | 0 mm | 0.45 m/s, 357° | - | - |
| 1787703962 | 22.78° C | - | 1013.1 hPa | 0 mm | 0.89 m/s, 326° | - | - |
| 1787703364 | 22.78° C | - | 1013.4 hPa | 0 mm | 0 m/s | - | - |
| 1787702767 | 22.78° C | - | 1013.4 hPa | 0 mm | 0.45 m/s, 115° | - | - |
| 1787702158 | 22.78° C | - | 1013.2 hPa | 0 mm | 0.89 m/s, 219° | - | - |
| 1787701557 | 22.78° C | - | 1012.8 hPa | 0 mm | 1.34 m/s, 287° | - | - |
| 1787700959 | 22.78° C | - | 1012.8 hPa | 0 mm | 0 m/s | - | - |
| 1787700362 | 23.33° C | - | 1013 hPa | 0 mm | 0.89 m/s, 114° | - | - |
| 1787699764 | 23.33° C | - | 1012.9 hPa | 0 mm | 1.34 m/s, 117° | - | - |
| 1787699167 | 23.89° C | - | 1012.8 hPa | 0 mm | 0 m/s | - | - |
| 1787698569 | 24.44° C | - | 1012.7 hPa | 0 mm | 0.89 m/s, 312° | - | - |
* Rain latest hour (hover to see other rain measurements)
** Current wind speed in m/s (hover to see current wind gust speed)